| time (UTC) | temp F | wind direction | speed MPH | gust MPH | rain 1hr in | rain 24hr in | rain mn in | humidity % | barometer mb |
| 20260904002007 | 75 | 350 | 2.0 | 9.0 | 0.00 | 0.00 | 0.00 | 87 | 1009.8 |
| 20260904001007 | 75 | 3 | 0.0 | 5.0 | 0.00 | 0.00 | 0.00 | 87 | 1009.1 |
| 20260904000507 | 76 | 288 | 0.0 | 2.0 | 0.00 | 0.00 | 0.00 | 87 | 1009.1 |
| 20260904000006 | 75 | 213 | 0.0 | 2.0 | 0.00 | 0.00 | 0.00 | 87 | 1009.1 |
| 20260903235507 | 75 | 194 | 0.0 | 5.0 | 0.00 | 0.00 | 0.00 | 87 | 1009.1 |
| 20260903235007 | 75 | 194 | 0.0 | 5.0 | 0.00 | 0.00 | 0.00 | 87 | 1009.1 |
| 20260903234506 | 75 | 193 | 0.0 | 5.0 | 0.00 | 0.00 | 0.00 | 87 | 1009.1 |
| 20260903234007 | 75 | 184 | 1.0 | 2.0 | 0.00 | 0.00 | 0.00 | 86 | 1009.1 |
| 20260903233507 | 75 | 203 | 2.0 | 2.0 | 0.00 | 0.00 | 0.00 | 86 | 1009.1 |
| 20260903233007 | 75 | 194 | 0.0 | 2.0 | 0.00 | 0.00 | 0.00 | 86 | 1009.1 |
| 20260903232506 | 75 | 153 | 0.0 | 5.0 | 0.00 | 0.00 | 0.00 | 86 | 1009.1 |
| 20260903232007 | 75 | 188 | 2.0 | 5.0 | 0.00 | 0.00 | 0.00 | 85 | 1009.1 |
| 20260903231506 | 75 | 196 | 2.0 | 5.0 | 0.00 | 0.00 | 0.00 | 85 | 1009.4 |
| 20260903231007 | 75 | 185 | 0.0 | 5.0 | 0.00 | 0.00 | 0.00 | 85 | 1009.1 |
| 20260903230507 | 75 | 184 | 2.0 | 2.0 | 0.00 | 0.00 | 0.00 | 85 | 1009.1 |
| 20260903230007 | 75 | 194 | 0.0 | 5.0 | 0.00 | 0.00 | 0.00 | 85 | 1009.1 |
| 20260903225506 | 75 | 199 | 0.0 | 5.0 | 0.00 | 0.00 | 0.00 | 85 | 1009.1 |
| 20260903225007 | 75 | 169 | 0.0 | 0.0 | 0.00 | 0.00 | 0.00 | 85 | 1009.1 |
| 20260903224506 | 75 | 145 | 0.0 | 0.0 | 0.00 | 0.00 | 0.00 | 85 | 1009.1 |
| 20260903224007 | 75 | 105 | 0.0 | 0.0 | 0.00 | 0.00 | 0.00 | 85 | 1009.1 |
| 20260903223507 | 75 | 116 | 0.0 | 0.0 | 0.00 | 0.00 | 0.00 | 85 | 1009.1 |
| 20260903223007 | 75 | 114 | 0.0 | 0.0 | 0.00 | 0.00 | 0.00 | 84 | 1009.1 |
| 20260903222507 | 76 | 105 | 0.0 | 0.0 | 0.00 | 0.00 | 0.00 | 83 | 1009.1 |
| 20260903222007 | 76 | 87 | 0.0 | 5.0 | 0.00 | 0.00 | 0.00 | 83 | 1009.1 |
| 20260903221507 | 75 | 94 | 0.0 | 5.0 | 0.00 | 0.00 | 0.00 | 83 | 1009.1 |
| 20260903221007 | 75 | 78 | 2.0 | 5.0 | 0.00 | 0.00 | 0.00 | 83 | 1008.6 |
| 20260903220507 | 76 | 102 | 0.0 | 2.0 | 0.00 | 0.00 | 0.00 | 83 | 1008.1 |
| 20260903220006 | 76 | 85 | 0.0 | 2.0 | 0.00 | 0.00 | 0.00 | 82 | 1008.1 |
| 20260903215507 | 77 | 58 | 0.0 | 0.0 | 0.00 | 0.00 | 0.00 | 81 | 1008.1 |
| 20260903214508 | 77 | 40 | 0.0 | 0.0 | 0.00 | 0.00 | 0.00 | 81 | 1008.1 |
| 20260903214007 | 77 | 45 | 0.0 | 2.0 | 0.00 | 0.00 | 0.00 | 82 | 1008.5 |
| 20260903213509 | 77 | 39 | 0.0 | 2.0 | 0.00 | 0.00 | 0.00 | 81 | 1009.1 |
| 20260903211506 | 78 | 51 | 0.0 | 0.0 | 0.00 | 0.00 | 0.00 | 81 | 1009.1 |
| 20260903211008 | 78 | 48 | 0.0 | 0.0 | 0.00 | 0.00 | 0.00 | 82 | 1009.1 |
| 20260903210507 | 77 | 35 | 0.0 | 0.0 | 0.00 | 0.00 | 0.00 | 82 | 1009.1 |
| 20260903210006 | 77 | 46 | 0.0 | 2.0 | 0.00 | 0.00 | 0.00 | 82 | 1009.1 |
| 20260903205008 | 77 | 44 | 0.0 | 2.0 | 0.00 | 0.00 | 0.00 | 83 | 1009.1 |
| 20260903204507 | 77 | 46 | 0.0 | 2.0 | 0.00 | 0.00 | 0.00 | 83 | 1009.1 |
| 20260903204008 | 77 | 47 | 0.0 | 2.0 | 0.00 | 0.00 | 0.00 | 83 | 1009.1 |
| 20260903203507 | 77 | 42 | 0.0 | 2.0 | 0.00 | 0.00 | 0.00 | 83 | 1009.1 |
| 20260903203007 | 77 | 44 | 0.0 | 2.0 | 0.00 | 0.00 | 0.00 | 84 | 1009.1 |
| 20260903202008 | 77 | 13 | 0.0 | 5.0 | 0.00 | 0.00 | 0.00 | 84 | 1009.1 |
| 20260903201506 | 76 | 23 | 2.0 | 5.0 | 0.00 | 0.00 | 0.00 | 85 | 1009.1 |
| 20260903201008 | 76 | 15 | 2.0 | 5.0 | 0.00 | 0.00 | 0.00 | 85 | 1009.1 |
| 20260903200506 | 76 | 27 | 2.0 | 5.0 | 0.00 | 0.00 | 0.00 | 85 | 1010.1 |
| 20260903200006 | 75 | 8 | 2.0 | 7.0 | 0.00 | 0.00 | 0.00 | 85 | 1009.6 |
| 20260903195506 | 75 | 11 | 3.0 | 7.0 | 0.00 | 0.00 | 0.00 | 86 | 1009.6 |
| 20260903195008 | 75 | 8 | 5.0 | 7.0 | 0.00 | 0.00 | 0.00 | 86 | 1010.0 |
| 20260903194507 | 75 | 17 | 5.0 | 7.0 | 0.00 | 0.00 | 0.00 | 86 | 1009.6 |
| 20260903194007 | 75 | 2 | 5.0 | 7.0 | 0.00 | 0.00 | 0.00 | 86 | 1009.2 |
| 20260903193507 | 75 | 19 | 5.0 | 7.0 | 0.00 | 0.00 | 0.00 | 86 | 1010.1 |
| 20260903193007 | 75 | 17 | 5.0 | 9.0 | 0.00 | 0.00 | 0.00 | 86 | 1010.1 |
| 20260903192008 | 75 | 27 | 7.0 | 9.0 | 0.00 | 0.00 | 0.00 | 86 | 1010.1 |
| 20260903191506 | 75 | 18 | 7.0 | 9.0 | 0.00 | 0.00 | 0.00 | 86 | 1010.1 |
| 20260903191007 | 75 | 26 | 7.0 | 9.0 | 0.00 | 0.00 | 0.00 | 86 | 1010.1 |
| 20260903190507 | 75 | 2 | 7.0 | 9.0 | 0.00 | 0.00 | 0.00 | 86 | 1010.1 |
| 20260903190006 | 75 | 25 | 5.0 | 9.0 | 0.00 | 0.00 | 0.00 | 86 | 1010.1 |
| 20260903185506 | 75 | 21 | 5.0 | 9.0 | 0.00 | 0.00 | 0.00 | 86 | 1010.1 |
| 20260903185007 | 75 | 11 | 6.0 | 9.0 | 0.00 | 0.00 | 0.00 | 85 | 1010.1 |
| 20260903184506 | 75 | 15 | 5.0 | 9.0 | 0.00 | 0.00 | 0.00 | 86 | 1010.1 |
| 20260903184007 | 75 | 16 | 5.0 | 9.0 | 0.00 | 0.00 | 0.00 | 86 | 1010.1 |
| 20260903183507 | 75 | 32 | 5.0 | 9.0 | 0.00 | 0.00 | 0.00 | 86 | 1010.1 |
| 20260903183007 | 75 | 338 | 3.0 | 9.0 | 0.00 | 0.00 | 0.00 | 87 | 1010.1 |
| 20260903182506 | 75 | 353 | 3.0 | 9.0 | 0.00 | 0.00 | 0.00 | 87 | 1010.1 |
| 20260903182008 | 75 | 357 | 5.0 | 9.0 | 0.00 | 0.00 | 0.00 | 87 | 1010.1 |
| 20260903181506 | 75 | 3 | 5.0 | 9.0 | 0.00 | 0.00 | 0.00 | 87 | 1010.1 |
| 20260903180006 | 75 | 23 | 7.0 | 12.0 | 0.00 | 0.00 | 0.00 | 88 | 1010.1 |
| 20260903175506 | 75 | 19 | 7.0 | 9.0 | 0.00 | 0.00 | 0.00 | 88 | 1010.1 |
| 20260903175007 | 75 | 32 | 5.0 | 9.0 | 0.00 | 0.00 | 0.00 | 88 | 1010.1 |
| 20260903174506 | 75 | 5 | 5.0 | 7.0 | 0.00 | 0.00 | 0.00 | 88 | 1010.1 |
| 20260903173506 | 76 | 48 | 2.0 | 7.0 | 0.00 | 0.00 | 0.00 | 88 | 1010.1 |
| 20260903173007 | 75 | 3 | 3.0 | 9.0 | 0.00 | 0.00 | 0.00 | 89 | 1010.1 |
| 20260903172008 | 75 | 32 | 5.0 | 9.0 | 0.00 | 0.00 | 0.00 | 89 | 1010.1 |
| 20260903171506 | 75 | 31 | 7.0 | 9.0 | 0.00 | 0.00 | 0.00 | 88 | 1010.1 |
| 20260903170506 | 75 | 15 | 4.0 | 7.0 | 0.00 | 0.00 | 0.00 | 88 | 1010.1 |
| 20260903165505 | 75 | 21 | 5.0 | 7.0 | 0.00 | 0.00 | 0.00 | 87 | 1010.1 |
| 20260903165006 | 75 | 16 | 5.0 | 7.0 | 0.00 | 0.00 | 0.00 | 87 | 1010.1 |
| 20260903164505 | 75 | 6 | 5.0 | 7.0 | 0.00 | 0.00 | 0.00 | 87 | 1010.1 |
| 20260903164007 | 76 | 16 | 2.0 | 5.0 | 0.00 | 0.00 | 0.00 | 86 | 1010.1 |
| 20260903163506 | 76 | 22 | 2.0 | 7.0 | 0.00 | 0.00 | 0.00 | 86 | 1010.1 |
| 20260903163006 | 75 | 35 | 4.0 | 7.0 | 0.00 | 0.00 | 0.00 | 86 | 1010.1 |
| 20260903162006 | 76 | 23 | 2.0 | 7.0 | 0.00 | 0.00 | 0.00 | 84 | 1010.1 |
| 20260903161506 | 76 | 26 | 2.0 | 7.0 | 0.00 | 0.00 | 0.00 | 83 | 1010.1 |
| 20260903161006 | 77 | 4 | 2.0 | 7.0 | 0.00 | 0.00 | 0.00 | 83 | 1010.1 |
| 20260903160506 | 76 | 9 | 5.0 | 7.0 | 0.00 | 0.00 | 0.00 | 80 | 1010.1 |
| 20260903160005 | 77 | 26 | 5.0 | 7.0 | 0.00 | 0.00 | 0.00 | 78 | 1010.1 |
| 20260903155506 | 78 | 13 | 3.0 | 7.0 | 0.00 | 0.00 | 0.00 | 72 | 1010.1 |
| 20260903155007 | 79 | 258 | 5.0 | 7.0 | 0.00 | 0.00 | 0.00 | 69 | 1010.1 |
| 20260903154505 | 79 | 235 | 7.0 | 9.0 | 0.00 | 0.00 | 0.00 | 71 | 1010.1 |
| 20260903154007 | 79 | 250 | 7.0 | 9.0 | 0.00 | 0.00 | 0.00 | 73 | 1010.1 |
| 20260903153507 | 79 | 234 | 9.0 | 14.0 | 0.00 | 0.00 | 0.00 | 73 | 1010.1 |
| 20260903152506 | 78 | 227 | 7.0 | 9.0 | 0.00 | 0.00 | 0.00 | 76 | 1010.1 |
| 20260903152006 | 78 | 241 | 7.0 | 9.0 | 0.00 | 0.00 | 0.00 | 76 | 1010.1 |
| 20260903151505 | 78 | 285 | 9.0 | 9.0 | 0.00 | 0.00 | 0.00 | 76 | 1010.1 |
| 20260903151007 | 77 | 269 | 7.0 | 12.0 | 0.00 | 0.00 | 0.00 | 77 | 1010.1 |
| 20260903145505 | 77 | 245 | 9.0 | 12.0 | 0.00 | 0.00 | 0.00 | 79 | 1010.1 |
| 20260903145006 | 77 | 251 | 7.0 | 9.0 | 0.00 | 0.00 | 0.00 | 81 | 1010.1 |
| 20260903144506 | 77 | 254 | 7.0 | 9.0 | 0.00 | 0.00 | 0.00 | 83 | 1010.1 |
| 20260903144007 | 77 | 239 | 9.0 | 9.0 | 0.00 | 0.00 | 0.00 | 82 | 1010.1 |
| 20260903143506 | 77 | 245 | 7.0 | 9.0 | 0.00 | 0.00 | 0.00 | 82 | 1010.1 |
| 20260903143006 | 77 | 251 | 9.0 | 12.0 | 0.00 | 0.00 | 0.00 | 82 | 1010.1 |
| 20260903142506 | 77 | 247 | 7.0 | 12.0 | 0.00 | 0.00 | 0.00 | 83 | 1010.1 |
| 20260903142007 | 77 | 257 | 6.0 | 12.0 | 0.00 | 0.00 | 0.00 | 85 | 1010.1 |
| 20260903141506 | 77 | 266 | 7.0 | 9.0 | 0.00 | 0.00 | 0.00 | 85 | 1010.1 |
| 20260903141006 | 76 | 270 | 6.0 | 7.0 | 0.00 | 0.00 | 0.00 | 86 | 1010.1 |
| 20260903140506 | 76 | 264 | 6.0 | 7.0 | 0.00 | 0.00 | 0.00 | 87 | 1010.1 |
| 20260903140005 | 75 | 278 | 5.0 | 9.0 | 0.00 | 0.00 | 0.00 | 88 | 1010.1 |
| 20260903135006 | 75 | 269 | 7.0 | 14.0 | 0.00 | 0.00 | 0.00 | 90 | 1010.1 |
| 20260903134505 | 75 | 271 | 9.0 | 14.0 | 0.00 | 0.00 | 0.00 | 90 | 1010.1 |
| 20260903134006 | 74 | 254 | 9.0 | 14.0 | 0.00 | 0.00 | 0.00 | 91 | 1010.1 |
| 20260903133006 | 74 | 253 | 7.0 | 9.0 | 0.00 | 0.00 | 0.00 | 92 | 1010.1 |
| 20260903132006 | 74 | 258 | 7.0 | 12.0 | 0.00 | 0.00 | 0.00 | 92 | 1011.1 |
| 20260903131505 | 74 | 264 | 9.0 | 12.0 | 0.00 | 0.00 | 0.00 | 92 | 1011.1 |
| 20260903131006 | 73 | 262 | 9.0 | 12.0 | 0.00 | 0.00 | 0.00 | 93 | 1011.1 |
| 20260903130506 | 73 | 259 | 9.0 | 12.0 | 0.00 | 0.00 | 0.00 | 93 | 1011.1 |
| 20260903130006 | 73 | 248 | 9.0 | 12.0 | 0.00 | 0.00 | 0.00 | 93 | 1011.1 |
| 20260903125506 | 73 | 253 | 9.0 | 12.0 | 0.00 | 0.00 | 0.00 | 94 | 1011.1 |
| 20260903125006 | 73 | 248 | 9.0 | 14.0 | 0.00 | 0.00 | 0.00 | 94 | 1011.3 |
| 20260903124505 | 73 | 251 | 9.0 | 14.0 | 0.00 | 0.00 | 0.00 | 94 | 1011.1 |
| 20260903124007 | 73 | 259 | 9.0 | 14.0 | 0.00 | 0.00 | 0.00 | 94 | 1011.1 |
| 20260903123506 | 73 | 259 | 9.0 | 12.0 | 0.00 | 0.00 | 0.00 | 94 | 1011.1 |
| 20260903123006 | 72 | 254 | 9.0 | 12.0 | 0.00 | 0.00 | 0.00 | 95 | 1011.1 |
| 20260903122505 | 72 | 262 | 9.0 | 12.0 | 0.00 | 0.00 | 0.00 | 95 | 1011.1 |
| 20260903121506 | 72 | 261 | 7.0 | 9.0 | 0.00 | 0.00 | 0.00 | 95 | 1011.1 |
| 20260903120506 | 72 | 264 | 7.0 | 9.0 | 0.00 | 0.00 | 0.00 | 96 | 1010.1 |
| 20260903120006 | 71 | 273 | 7.0 | 9.0 | 0.00 | 0.00 | 0.00 | 96 | 1010.1 |
| 20260903115505 | 71 | 263 | 7.0 | 9.0 | 0.00 | 0.00 | 0.00 | 96 | 1010.1 |
| 20260903115007 | 71 | 253 | 7.0 | 9.0 | 0.00 | 0.00 | 0.00 | 97 | 1010.1 |
| 20260903114505 | 71 | 242 | 7.0 | 9.0 | 0.00 | 0.00 | 0.00 | 97 | 1010.1 |
| 20260903114010 | 71 | 252 | 7.0 | 9.0 | 0.00 | 0.00 | 0.00 | 97 | 1010.1 |
| 20260903113506 | 71 | 249 | 7.0 | 9.0 | 0.00 | 0.00 | 0.00 | 97 | 1010.1 |
| 20260903113006 | 71 | 244 | 7.0 | 9.0 | 0.00 | 0.00 | 0.00 | 97 | 1010.1 |
| 20260903112506 | 71 | 240 | 7.0 | 9.0 | 0.00 | 0.00 | 0.00 | 97 | 1010.1 |
| 20260903112007 | 71 | 239 | 7.0 | 9.0 | 0.00 | 0.00 | 0.00 | 97 | 1010.1 |
| 20260903111505 | 71 | 242 | 7.0 | 9.0 | 0.00 | 0.00 | 0.00 | 97 | 1010.1 |
| 20260903110506 | 70 | 254 | 7.0 | 9.0 | 0.00 | 0.00 | 0.00 | 98 | 1010.1 |
| 20260903110006 | 70 | 250 | 7.0 | 7.0 | 0.00 | 0.00 | 0.00 | 98 | 1010.1 |
| 20260903105007 | 71 | 241 | 7.0 | 7.0 | 0.00 | 0.00 | 0.00 | 99 | 1010.1 |
| 20260903104505 | 71 | 238 | 7.0 | 7.0 | 0.00 | 0.00 | 0.00 | 99 | 1010.1 |
| 20260903104007 | 71 | 242 | 7.0 | 7.0 | 0.00 | 0.00 | 0.00 | 99 | 1010.1 |
| 20260903103506 | 71 | 237 | 7.0 | 7.0 | 0.00 | 0.00 | 0.00 | 99 | 1010.1 |
| 20260903103006 | 71 | 236 | 7.0 | 7.0 | 0.00 | 0.00 | 0.00 | 99 | 1010.1 |
| 20260903102505 | 71 | 245 | 7.0 | 7.0 | 0.00 | 0.00 | 0.00 | 99 | 1010.1 |
| 20260903102007 | 71 | 240 | 6.0 | 7.0 | 0.00 | 0.00 | 0.00 | 99 | 1010.1 |
| 20260903101006 | 71 | 229 | 7.0 | 7.0 | 0.00 | 0.00 | 0.00 | 100 | 1010.1 |
| 20260903100506 | 71 | 233 | 5.0 | 7.0 | 0.00 | 0.00 | 0.00 | 100 | 1010.1 |
| 20260903100005 | 71 | 230 | 5.0 | 7.0 | 0.00 | 0.00 | 0.00 | 100 | 1010.1 |
| 20260903095506 | 71 | 229 | 7.0 | 7.0 | 0.00 | 0.00 | 0.00 | 100 | 1010.1 |
| 20260903094507 | 71 | 223 | 7.0 | 7.0 | 0.00 | 0.00 | 0.00 | 100 | 1009.2 |
| 20260903094008 | 71 | 224 | 7.0 | 7.0 | 0.00 | 0.00 | 0.00 | 100 | 1010.1 |
| 20260903093508 | 71 | 224 | 7.0 | 7.0 | 0.00 | 0.00 | 0.00 | 100 | 1010.1 |
| 20260903093008 | 70 | 219 | 7.0 | 7.0 | 0.00 | 0.00 | 0.00 | 100 | 1010.1 |
| 20260903092507 | 70 | 227 | 5.0 | 7.0 | 0.00 | 0.00 | 0.00 | 100 | 1010.1 |
| 20260903091507 | 70 | 219 | 5.0 | 5.0 | 0.00 | 0.00 | 0.00 | 100 | 1010.1 |
| 20260903091009 | 70 | 234 | 2.0 | 5.0 | 0.00 | 0.00 | 0.00 | 100 | 1010.1 |
| 20260903090508 | 70 | 228 | 5.0 | 5.0 | 0.00 | 0.00 | 0.00 | 100 | 1010.1 |
| 20260903090008 | 70 | 211 | 5.0 | 5.0 | 0.00 | 0.00 | 0.00 | 100 | 1010.1 |
| 20260903085507 | 70 | 227 | 2.0 | 5.0 | 0.00 | 0.00 | 0.00 | 100 | 1010.1 |
| 20260903084507 | 70 | 193 | 5.0 | 5.0 | 0.00 | 0.00 | 0.00 | 100 | 1010.1 |
| 20260903084009 | 70 | 198 | 5.0 | 5.0 | 0.00 | 0.00 | 0.00 | 100 | 1010.1 |
| 20260903083009 | 70 | 177 | 2.0 | 5.0 | 0.00 | 0.00 | 0.00 | 100 | 1010.1 |
| 20260903082507 | 70 | 214 | 0.0 | 2.0 | 0.00 | 0.00 | 0.00 | 100 | 1010.1 |
| 20260903082008 | 70 | 236 | 0.0 | 0.0 | 0.00 | 0.00 | 0.00 | 100 | 1010.1 |
| 20260903081008 | 70 | 238 | 0.0 | 2.0 | 0.00 | 0.00 | 0.00 | 100 | 1010.1 |
| 20260903080508 | 70 | 214 | 0.0 | 2.0 | 0.00 | 0.00 | 0.00 | 100 | 1010.1 |
| 20260903080007 | 70 | 222 | 0.0 | 2.0 | 0.00 | 0.00 | 0.00 | 100 | 1010.1 |
| 20260903075008 | 70 | 206 | 0.0 | 2.0 | 0.00 | 0.00 | 0.00 | 100 | 1010.1 |
| 20260903074507 | 70 | 200 | 0.0 | 2.0 | 0.00 | 0.00 | 0.00 | 100 | 1010.1 |
| 20260903074008 | 70 | 176 | 0.0 | 0.0 | 0.00 | 0.00 | 0.00 | 100 | 1010.1 |
| 20260903073507 | 70 | 181 | 0.0 | 0.0 | 0.00 | 0.00 | 0.00 | 100 | 1009.1 |
| 20260903073008 | 70 | 176 | 0.0 | 2.0 | 0.00 | 0.00 | 0.00 | 100 | 1009.5 |
| 20260903072507 | 70 | 183 | 0.0 | 2.0 | 0.00 | 0.00 | 0.00 | 100 | 1009.1 |
| 20260903072008 | 70 | 194 | 0.0 | 5.0 | 0.00 | 0.00 | 0.00 | 100 | 1010.1 |
| 20260903071507 | 70 | 179 | 4.0 | 5.0 | 0.00 | 0.00 | 0.00 | 100 | 1010.1 |
| 20260903071009 | 70 | 199 | 5.0 | 5.0 | 0.00 | 0.00 | 0.00 | 100 | 1010.1 |
| 20260903070507 | 70 | 192 | 5.0 | 5.0 | 0.00 | 0.00 | 0.00 | 100 | 1010.1 |
| 20260903070007 | 70 | 191 | 2.0 | 5.0 | 0.00 | 0.00 | 0.00 | 100 | 1010.1 |
| 20260903064507 | 70 | 186 | 5.0 | 5.0 | 0.00 | 0.00 | 0.00 | 100 | 1010.1 |
| 20260903064008 | 70 | 191 | 2.0 | 5.0 | 0.00 | 0.00 | 0.00 | 100 | 1010.1 |
| 20260903063508 | 70 | 215 | 2.0 | 5.0 | 0.00 | 0.00 | 0.00 | 100 | 1010.1 |
| 20260903063008 | 70 | 202 | 0.0 | 2.0 | 0.00 | 0.00 | 0.00 | 100 | 1010.1 |
| 20260903062507 | 70 | 170 | 0.0 | 5.0 | 0.00 | 0.00 | 0.00 | 100 | 1010.1 |
| 20260903062008 | 70 | 175 | 0.0 | 5.0 | 0.00 | 0.00 | 0.00 | 100 | 1010.1 |
| 20260903061507 | 70 | 191 | 1.0 | 5.0 | 0.00 | 0.00 | 0.00 | 100 | 1010.1 |
| 20260903061008 | 70 | 223 | 0.0 | 2.0 | 0.00 | 0.00 | 0.00 | 100 | 1010.1 |
| 20260903060007 | 70 | 339 | 0.0 | 5.0 | 0.00 | 0.00 | 0.00 | 100 | 1010.1 |
| 20260903055507 | 70 | 4 | 2.0 | 5.0 | 0.00 | 0.00 | 0.00 | 100 | 1010.1 |
| 20260903054507 | 70 | 299 | 5.0 | 5.0 | 0.00 | 0.00 | 0.00 | 100 | 1010.1 |
| 20260903054008 | 70 | 279 | 5.0 | 5.0 | 0.00 | 0.00 | 0.00 | 100 | 1010.1 |
| 20260903053507 | 70 | 275 | 2.0 | 5.0 | 0.00 | 0.00 | 0.00 | 100 | 1010.1 |
| 20260903053008 | 70 | 303 | 0.0 | 5.0 | 0.00 | 0.00 | 0.00 | 99 | 1010.1 |
| 20260903052507 | 70 | 297 | 0.0 | 5.0 | 0.00 | 0.00 | 0.00 | 99 | 1010.1 |
| 20260903052007 | 70 | 257 | 0.0 | 5.0 | 0.00 | 0.00 | 0.00 | 99 | 1010.1 |
| 20260903051507 | 70 | 320 | 2.0 | 5.0 | 0.00 | 0.00 | 0.00 | 99 | 1010.1 |
| 20260903051008 | 70 | 279 | 5.0 | 5.0 | 0.00 | 0.00 | 0.00 | 99 | 1010.1 |
| 20260903050508 | 70 | 276 | 5.0 | 5.0 | 0.00 | 0.00 | 0.00 | 99 | 1010.1 |
| 20260903050007 | 70 | 279 | 2.0 | 5.0 | 0.00 | 0.00 | 0.00 | 99 | 1010.1 |
| 20260903045506 | 70 | 294 | 2.0 | 5.0 | 0.00 | 0.00 | 0.00 | 99 | 1009.1 |
| 20260903045007 | 70 | 313 | 2.0 | 7.0 | 0.00 | 0.00 | 0.00 | 99 | 1009.1 |
| 20260903044507 | 70 | 316 | 5.0 | 7.0 | 0.00 | 0.00 | 0.00 | 99 | 1009.1 |
| 20260903044008 | 70 | 251 | 5.0 | 9.0 | 0.00 | 0.00 | 0.00 | 99 | 1009.1 |
| 20260903043508 | 70 | 221 | 7.0 | 9.0 | 0.00 | 0.00 | 0.00 | 99 | 1009.1 |
| 20260903043008 | 70 | 211 | 9.0 | 12.0 | 0.00 | 0.00 | 0.00 | 99 | 1009.1 |
| 20260903042507 | 70 | 210 | 9.0 | 12.0 | 0.00 | 0.00 | 0.00 | 99 | 1009.1 |
| 20260903042008 | 70 | 212 | 7.0 | 9.0 | 0.00 | 0.00 | 0.00 | 99 | 1009.1 |
| 20260903041507 | 70 | 217 | 7.0 | 12.0 | 0.00 | 0.00 | 0.00 | 99 | 1009.1 |
| 20260903041009 | 70 | 210 | 7.0 | 12.0 | 0.00 | 0.00 | 0.00 | 99 | 1008.8 |
| 20260903040508 | 70 | 205 | 7.0 | 9.0 | 0.00 | 0.00 | 0.00 | 99 | 1009.1 |
| 20260903040009 | 70 | 201 | 7.0 | 9.0 | 0.00 | 0.00 | 0.00 | 99 | 1009.1 |
| 20260903035507 | 70 | 203 | 7.0 | 7.0 | 0.00 | 0.00 | 0.00 | 99 | 1009.1 |
| 20260903035007 | 70 | 206 | 6.0 | 7.0 | 0.00 | 0.00 | 0.00 | 99 | 1009.1 |
| 20260903034506 | 70 | 201 | 5.0 | 7.0 | 0.00 | 0.00 | 0.00 | 99 | 1009.1 |
| 20260903034008 | 70 | 202 | 5.0 | 9.0 | 0.00 | 0.00 | 0.00 | 99 | 1009.1 |
| 20260903033508 | 70 | 213 | 7.0 | 9.0 | 0.00 | 0.00 | 0.00 | 99 | 1009.1 |
| 20260903033007 | 70 | 221 | 7.0 | 9.0 | 0.00 | 0.00 | 0.00 | 99 | 1009.1 |
| 20260903032506 | 70 | 224 | 9.0 | 12.0 | 0.00 | 0.00 | 0.00 | 99 | 1009.1 |
| 20260903031008 | 70 | 226 | 12.0 | 14.0 | 0.00 | 0.00 | 0.00 | 99 | 1010.1 |
| 20260903030507 | 70 | 226 | 9.0 | 12.0 | 0.00 | 0.00 | 0.00 | 99 | 1010.1 |
| 20260903030007 | 70 | 212 | 10.0 | 14.0 | 0.00 | 0.00 | 0.00 | 99 | 1010.1 |
| 20260903025507 | 70 | 203 | 12.0 | 16.0 | 0.00 | 0.00 | 0.00 | 99 | 1009.9 |
| 20260903025007 | 70 | 210 | 12.0 | 16.0 | 0.00 | 0.00 | 0.00 | 99 | 1010.1 |
| 20260903024507 | 70 | 200 | 14.0 | 18.0 | 0.00 | 0.00 | 0.00 | 99 | 1009.9 |
| 20260903024007 | 70 | 204 | 14.0 | 18.0 | 0.00 | 0.00 | 0.00 | 99 | 1010.1 |
| 20260903023507 | 70 | 211 | 14.0 | 18.0 | 0.00 | 0.00 | 0.00 | 99 | 1009.6 |
| 20260903023007 | 70 | 215 | 12.0 | 18.0 | 0.00 | 0.00 | 0.00 | 99 | 1010.1 |
| 20260903022506 | 70 | 202 | 12.0 | 18.0 | 0.00 | 0.00 | 0.00 | 99 | 1009.1 |
| 20260903022008 | 70 | 197 | 15.0 | 18.0 | 0.00 | 0.00 | 0.00 | 99 | 1010.1 |
| 20260903021007 | 70 | 233 | 14.0 | 20.0 | 0.00 | 0.00 | 0.00 | 99 | 1010.1 |
| 20260903020507 | 70 | 208 | 14.0 | 18.0 | 0.00 | 0.00 | 0.00 | 99 | 1010.1 |
| 20260903020007 | 70 | 221 | 14.0 | 18.0 | 0.00 | 0.00 | 0.00 | 99 | 1010.1 |
| 20260903015507 | 70 | 196 | 12.0 | 18.0 | 0.00 | 0.00 | 0.00 | 99 | 1009.1 |
| 20260903015008 | 69 | 192 | 12.0 | 18.0 | 0.00 | 0.00 | 0.00 | 99 | 1008.1 |
| 20260903014506 | 69 | 177 | 12.0 | 20.0 | 0.00 | 0.00 | 0.00 | 99 | 1008.6 |
| 20260903014008 | 69 | 181 | 9.0 | 20.0 | 0.00 | 0.00 | 0.00 | 99 | 1009.1 |
| 20260903013508 | 69 | 181 | 9.0 | 20.0 | 0.00 | 0.00 | 0.00 | 99 | 1009.1 |
| 20260903013008 | 69 | 184 | 12.0 | 20.0 | 0.00 | 0.00 | 0.00 | 99 | 1009.1 |
| 20260903012007 | 69 | 175 | 6.0 | 12.0 | 0.00 | 0.00 | 0.00 | 98 | 1010.1 |
| 20260903011507 | 70 | 180 | 5.0 | 9.0 | 0.00 | 0.00 | 0.00 | 98 | 1010.1 |
| 20260903010507 | 70 | 184 | 5.0 | 5.0 | 0.00 | 0.00 | 0.00 | 98 | 1010.1 |
| 20260903010006 | 70 | 142 | 5.0 | 5.0 | 0.00 | 0.00 | 0.00 | 98 | 1010.1 |
| 20260903005507 | 70 | 146 | 5.0 | 7.0 | 0.00 | 0.00 | 0.00 | 98 | 1010.1 |
| 20260903005008 | 70 | 141 | 2.0 | 7.0 | 0.00 | 0.00 | 0.00 | 98 | 1010.1 |
| 20260903004507 | 70 | 151 | 2.0 | 9.0 | 0.00 | 0.00 | 0.00 | 97 | 1010.1 |
| 20260903004008 | 70 | 159 | 5.0 | 12.0 | 0.00 | 0.00 | 0.00 | 97 | 1010.1 |
| 20260903003507 | 69 | 197 | 9.0 | 12.0 | 0.00 | 0.00 | 0.00 | 97 | 1010.1 |